When you browse on this site, cookies collect data to enhance your experience and personalize the content and advertising you see.
Visit our Privacy Policy to learn more. By continuing to use the site, you agree to this use of cookies and data.
EN

Hourly Weather Stavky

Today, 6 August, Thursday

Time Temperature Precipitation Wind Pressure Humidity
00:00 +19°C° 0 mm 3 mps 745 mmHg 95%
01:00 +18°C° 0 mm 2 mps 745 mmHg 95%
02:00 +18°C° 0 mm 2 mps 745 mmHg 96%
03:00 +18°C° 0 mm 2 mps 745 mmHg 96%
04:00 +18°C° 0 mm 2 mps 746 mmHg 96%
05:00 +17°C° 0 mm 2 mps 746 mmHg 96%
06:00 +19°C° 0 mm 2 mps 746 mmHg 92%
07:00 +20°C° 0 mm 3 mps 746 mmHg 87%
08:00 +22°C° 0 mm 3 mps 747 mmHg 83%
09:00 +24°C° 0 mm 3 mps 747 mmHg 77%
10:00 +26°C° 0 mm 3 mps 747 mmHg 71%
11:00 +28°C° 0 mm 3 mps 747 mmHg 65%
12:00 +28°C° 0 mm 3 mps 747 mmHg 61%
13:00 +29°C° 0 mm 3 mps 747 mmHg 57%
14:00 +30°C° 0 mm 3 mps 748 mmHg 53%
15:00 +30°C° 0 mm 3 mps 747 mmHg 55%
16:00 +30°C° 0 mm 2 mps 747 mmHg 57%
17:00 +29°C° 0 mm 2 mps 747 mmHg 59%
18:00 +27°C° 0.1 mm 2 mps 747 mmHg 66%
19:00 +25°C° 0.1 mm 3 mps 747 mmHg 73%
20:00 +22°C° 0.1 mm 3 mps 747 mmHg 81%
21:00 +22°C° 0.1 mm 3 mps 748 mmHg 84%
22:00 +21°C° 0.1 mm 3 mps 748 mmHg 88%
23:00 +20°C° 0.1 mm 3 mps 748 mmHg 91%

Tomorrow, 7 August, Friday

Time Temperature Precipitation Wind Pressure Humidity
00:00 +20°C° 0 mm 3 mps 748 mmHg 93%
01:00 +20°C° 0 mm 2 mps 748 mmHg 94%
02:00 +19°C° 0 mm 2 mps 748 mmHg 95%
03:00 +19°C° 0 mm 2 mps 748 mmHg 95%
04:00 +19°C° 0 mm 2 mps 748 mmHg 96%
05:00 +18°C° 0 mm 2 mps 748 mmHg 96%
06:00 +19°C° 0 mm 3 mps 749 mmHg 94%
07:00 +21°C° 0 mm 3 mps 749 mmHg 92%
08:00 +22°C° 0 mm 3 mps 749 mmHg 89%
09:00 +24°C° 0.1 mm 3 mps 749 mmHg 84%
10:00 +25°C° 0.1 mm 4 mps 749 mmHg 78%
11:00 +27°C° 0.1 mm 4 mps 749 mmHg 73%
12:00 +27°C° 0.3 mm 4 mps 749 mmHg 70%
13:00 +28°C° 0.3 mm 4 mps 749 mmHg 67%
14:00 +28°C° 0.3 mm 4 mps 749 mmHg 64%
15:00 +28°C° 0.1 mm 4 mps 749 mmHg 63%
16:00 +28°C° 0.1 mm 4 mps 748 mmHg 63%
17:00 +28°C° 0.1 mm 4 mps 748 mmHg 62%
18:00 +26°C° 0 mm 3 mps 748 mmHg 66%
19:00 +24°C° 0 mm 3 mps 748 mmHg 70%
20:00 +21°C° 0 mm 3 mps 748 mmHg 75%
21:00 +20°C° 0 mm 3 mps 748 mmHg 77%
22:00 +20°C° 0 mm 3 mps 748 mmHg 79%
23:00 +19°C° 0 mm 3 mps 749 mmHg 81%

Day after tomorrow, 8 August, Saturday

Time Temperature Precipitation Wind Pressure Humidity
00:00 +18°C° 0 mm 3 mps 749 mmHg 83%
01:00 +18°C° 0 mm 3 mps 749 mmHg 85%
02:00 +17°C° 0 mm 2 mps 749 mmHg 87%
03:00 +17°C° 0 mm 2 mps 749 mmHg 89%
04:00 +17°C° 0 mm 2 mps 748 mmHg 90%
05:00 +16°C° 0 mm 2 mps 748 mmHg 92%
06:00 +18°C° 0 mm 2 mps 749 mmHg 88%
07:00 +19°C° 0 mm 2 mps 749 mmHg 84%
08:00 +20°C° 0 mm 3 mps 749 mmHg 79%
09:00 +22°C° 0 mm 3 mps 749 mmHg 73%
10:00 +24°C° 0 mm 3 mps 749 mmHg 67%
11:00 +26°C° 0 mm 3 mps 749 mmHg 61%
12:00 +26°C° 0 mm 3 mps 749 mmHg 58%
13:00 +27°C° 0 mm 3 mps 748 mmHg 56%
14:00 +28°C° 0 mm 3 mps 748 mmHg 53%
15:00 +27°C° 0 mm 2 mps 748 mmHg 54%
16:00 +27°C° 0 mm 2 mps 747 mmHg 55%
17:00 +27°C° 0 mm 2 mps 747 mmHg 56%
18:00 +26°C° 0 mm 1 mps 747 mmHg 62%
19:00 +24°C° 0 mm 1 mps 747 mmHg 69%
20:00 +22°C° 0 mm 1 mps 746 mmHg 75%
21:00 +21°C° 0 mm 1 mps 746 mmHg 78%
22:00 +21°C° 0 mm 1 mps 746 mmHg 82%
23:00 +20°C° 0 mm 1 mps 746 mmHg 85%

9 August, Sunday

Time Temperature Precipitation Wind Pressure Humidity
00:00 +20°C° 0 mm 1 mps 746 mmHg 86%
01:00 +19°C° 0 mm 1 mps 746 mmHg 87%
02:00 +19°C° 0 mm 1 mps 746 mmHg 88%
03:00 +19°C° 0 mm 1 mps 746 mmHg 89%
04:00 +19°C° 0 mm 1 mps 746 mmHg 89%
05:00 +19°C° 0 mm 1 mps 745 mmHg 90%
06:00 +20°C° 0 mm 1 mps 745 mmHg 87%
07:00 +20°C° 0 mm 2 mps 745 mmHg 83%
08:00 +23°C° 0 mm 2 mps 746 mmHg 79%
09:00 +24°C° 0.3 mm 2 mps 745 mmHg 74%
10:00 +25°C° 0.3 mm 3 mps 745 mmHg 69%
11:00 +26°C° 0.3 mm 3 mps 745 mmHg 65%
12:00 +27°C° 0.1 mm 3 mps 745 mmHg 63%
13:00 +27°C° 0.1 mm 3 mps 745 mmHg 60%
14:00 +28°C° 0.1 mm 3 mps 745 mmHg 58%
15:00 +27°C° 0.5 mm 3 mps 744 mmHg 61%
16:00 +27°C° 0.5 mm 2 mps 744 mmHg 63%
17:00 +26°C° 0.5 mm 2 mps 744 mmHg 65%
18:00 +25°C° 0.1 mm 2 mps 744 mmHg 70%
19:00 +23°C° 0.1 mm 2 mps 744 mmHg 75%
20:00 +21°C° 0.1 mm 2 mps 744 mmHg 80%
21:00 +21°C° 0.1 mm 1 mps 744 mmHg 83%
22:00 +21°C° 0.1 mm 1 mps 744 mmHg 85%
23:00 +20°C° 0.1 mm 1 mps 744 mmHg 87%

10 August, Monday

Time Temperature Precipitation Wind Pressure Humidity
00:00 +20°C° 0 mm 1 mps 744 mmHg 88%
01:00 +19°C° 0 mm 1 mps 744 mmHg 89%
02:00 +19°C° 0 mm 1 mps 744 mmHg 90%
03:00 +19°C° 0 mm 1 mps 744 mmHg 90%
04:00 +18°C° 0 mm 1 mps 744 mmHg 91%
05:00 +18°C° 0 mm 1 mps 744 mmHg 91%
06:00 +19°C° 0 mm 1 mps 744 mmHg 87%
07:00 +21°C° 0 mm 1 mps 745 mmHg 83%
08:00 +22°C° 0 mm 1 mps 745 mmHg 78%
09:00 +23°C° 0.1 mm 1 mps 745 mmHg 72%
10:00 +25°C° 0.1 mm 1 mps 745 mmHg 66%
11:00 +26°C° 0.1 mm 1 mps 745 mmHg 60%
12:00 +27°C° 0.1 mm 2 mps 745 mmHg 58%
13:00 +27°C° 0.1 mm 2 mps 745 mmHg 56%
14:00 +28°C° 0.1 mm 2 mps 744 mmHg 53%
15:00 +27°C° 0.4 mm 2 mps 744 mmHg 56%
16:00 +27°C° 0.4 mm 2 mps 744 mmHg 59%
17:00 +27°C° 0.4 mm 2 mps 744 mmHg 61%
18:00 +25°C° 0.1 mm 2 mps 744 mmHg 67%
19:00 +24°C° 0.1 mm 1 mps 744 mmHg 72%
20:00 +22°C° 0.1 mm 1 mps 744 mmHg 77%
21:00 +21°C° 0.1 mm 1 mps 744 mmHg 79%
22:00 +21°C° 0.1 mm 1 mps 744 mmHg 82%
23:00 +20°C° 0.1 mm 1 mps 744 mmHg 84%

11 August, Tuesday

Time Temperature Precipitation Wind Pressure Humidity
00:00 +18°C° 0 mm 0 mps 744 mmHg 85%
01:00 +17°C° 0 mm 0 mps 744 mmHg 85%
02:00 +17°C° 0 mm 0 mps 744 mmHg 86%
03:00 +17°C° 0 mm 0 mps 744 mmHg 87%
04:00 +19°C° 0 mm 1 mps 744 mmHg 87%
05:00 +18°C° 0 mm 1 mps 744 mmHg 87%
06:00 +20°C° 0 mm 1 mps 745 mmHg 83%
07:00 +21°C° 0 mm 1 mps 745 mmHg 78%
08:00 +23°C° 0 mm 1 mps 745 mmHg 74%
09:00 +24°C° 0 mm 1 mps 745 mmHg 69%
10:00 +26°C° 0 mm 1 mps 745 mmHg 64%
11:00 +27°C° 0 mm 1 mps 745 mmHg 59%
12:00 +28°C° 0 mm 1 mps 745 mmHg 56%
13:00 +29°C° 0 mm 1 mps 745 mmHg 53%
14:00 +29°C° 0 mm 1 mps 744 mmHg 50%
15:00 +29°C° 0.1 mm 1 mps 744 mmHg 51%
16:00 +29°C° 0.1 mm 1 mps 744 mmHg 53%
17:00 +29°C° 0.1 mm 1 mps 744 mmHg 54%
18:00 +27°C° 0.3 mm 1 mps 744 mmHg 60%
19:00 +25°C° 0.3 mm 1 mps 744 mmHg 66%
20:00 +23°C° 0.3 mm 1 mps 744 mmHg 72%
21:00 +22°C° 0.4 mm 1 mps 744 mmHg 76%
22:00 +21°C° 0.4 mm 1 mps 744 mmHg 80%
23:00 +18°C° 0.4 mm 0 mps 744 mmHg 83%
Show more